This demonstration page uses our WeatherBlox Daily Observations layout. Learn more.

Left ArrowRight Arrow

44.8408, -93.29828

Hourly Observations for September 26, 2020

Temp ( °F °C ) Dew Point ( °F °C ) Humidity (%) Winds ( mph kmh ) Pressure ( in mb ) Visibility ( mi km ) Precip ( " mm )
12:53 am 00:53 Partly Cloudy 65 18.3 60 15.6 84 84 Calm 29.71 1006 10 16 0.00 0.00
1:53 am 01:53 Mostly Cloudy 64 17.8 59 15 84 84 Calm 29.70 1006 8 13 0.00 0.00
2:53 am 02:53 Mostly Cloudy 65 18.3 60 15.6 84 84 SSW 3 6 29.70 1006 8 13 0.00 0.00
3:53 am 03:53 Mostly Cloudy 63 17.2 60 15.6 90 90 ESE 3 6 29.69 1005 7 11 0.00 0.00
4:53 am 04:53 Mostly Cloudy 62 16.7 60 15.6 93 93 SE 3 6 29.67 1005 7 11 0.00 0.00
5:53 am 05:53 Mostly Cloudy 63 17.2 59 15 87 87 SSW 6 9 29.68 1005 9 14 0.00 0.00
6:53 am 06:53 Mostly Cloudy 61 16.1 59 15 93 93 Calm 29.68 1005 8 13 0.00 0.00
7:53 am 07:53 Cloudy with Mist and Fog 62 16.7 60 15.6 93 93 ESE 5 7 29.65 1004 6 10 0.00 0.00
8:53 am 08:53 Cloudy 63 17.2 60 15.6 90 90 E 6 9 29.64 1004 7 11 0.00 0.00
9:53 am 09:53 Cloudy 65 18.3 60 15.6 84 84 SE 6 9 29.62 1003 8 13 0.00 0.00
10:53 am 10:53 Cloudy 65 18.3 60 15.6 84 84 VRB 7 11 29.61 1003 7 11 0.00 0.00
11:53 am 11:53 Cloudy 66 18.9 61 16.1 84 84 ESE 8 13 29.60 1003 8 13 0.00 0.00
12:53 pm 12:53 Cloudy 68 20 61 16.1 78 78 E 7 11 29.56 1001 8 13 0.00 0.00
1:53 pm 13:53 Cloudy 69 20.6 62 16.7 78 78 ENE 15 24 29.46 998 9 14 0.00 0.00
2:42 pm 14:42 Cloudy 70 21.1 63 17.2 79 79 SSE 9 15 29.47 998 9 14 0.00 0.00
2:53 pm 14:53 Cloudy 69 20.6 63 17.2 81 81 SSE 6 9 29.47 998 9 14 0.00 0.00
3:31 pm 15:31 Cloudy 68 20 63 17.2 84 84 SE 7 11 29.47 998 9 14 0.00 0.00
3:53 pm 15:53 Cloudy 68 20 63 17.2 84 84 SE 7 11 29.49 999 9 14 0.00 0.00
4:50 pm 16:50 Cloudy 68 20 64 18 88 88 E 6 9 29.46 998 8 13 0.00 0.00
4:53 pm 16:53 Cloudy 68 20 64 17.8 87 87 E 6 9 29.47 998 8 13 0.00 0.00
5:08 pm 17:08 Cloudy 68 20 64 17.8 87 87 E 6 9 29.45 997 8 13 0.00 0.00
5:20 pm 17:20 Cloudy 68 20 64 17.8 87 87 ENE 5 7 29.45 997 8 13 0.00 0.00
5:44 pm 17:44 Cloudy 68 20 64 17.8 87 87 NE 5 7 29.45 997 8 13 0.00 0.00
5:53 pm 17:53 Cloudy 68 20 64 17.8 87 87 NNE 6 9 29.45 997 8 13 0.00 0.00
6:30 pm 18:30 Cloudy 68 20 64 17.8 87 87 N 7 11 29.46 998 8 13 0.00 0.00
6:53 pm 18:53 Cloudy 66 18.9 64 17.8 93 93 NNE 8 13 29.48 998 8 13 0.00 0.00
7:01 pm 19:01 Cloudy with Drizzle 66 18.9 64 17.8 93 93 NNE 9 15 29.47 998 9 14 0.00 0.00
7:53 pm 19:53 Cloudy with Light Rain 63 17.2 62 16.7 97 97 NNE 9 15 29.50 999 10 16 0.00 0.00
8:53 pm 20:53 Cloudy with Light Rain 62 16.7 61 16.1 96 96 NNE 16 26 29.53 1000 5 8 0.01 0.25
9:10 pm 21:10 Cloudy with Light Rain 62 16.7 61 16.1 96 96 NNE 8 13 29.53 1000 6 10 0.00 0.00
9:32 pm 21:32 Cloudy with Light Rain 61 16.1 59 15 93 93 NNE 9 15 29.54 1000 10 16 0.00 0.00
9:40 pm 21:40 Cloudy 61 16.1 59 15 93 93 NNE 12 19 29.54 1000 10 16 0.00 0.00
9:53 pm 21:53 Cloudy 61 16.1 58 14.4 90 90 NNE 9 15 29.55 1001 10 16 0.00 0.00
10:20 pm 22:20 Cloudy 60 15.6 58 14.4 93 93 N 8 13 29.56 1001 10 16 0.00 0.00
10:53 pm 22:53 Mostly Cloudy 59 15 57 13.9 93 93 N 6 9 29.56 1001 10 16 0.00 0.00
11:53 pm 23:53 Mostly Cloudy 59 15 57 13.9 93 93 NNW 3 6 29.58 1002 10 16 0.00 0.00

Powered by AerisWeather